Location: Sommers-Bausch Observatory
(40.0037°N, 105.2635°W)
Time: 19:52:02
(UTC-06:00)

Amateur Radio Satellites - All Passes

Search period start: 31 October 2014 19:22
Search period end: 01 November 2014 19:22
Location: Sommers-Bausch Observatory, 40.0037°N, 105.2635°W

Satellite Date Start Highest point End Downlink Frequencies (MHz)
Time Altitude Azimuth
OPAL 31 Oct 19:23:40 19:28:01 32° 294° (WNW) 19:32:21 ?
STRAND 1 31 Oct 19:41:09 19:46:14 57° 101° (E) 19:51:16 ?
RS-15 31 Oct 19:49:14 19:57:38 26° 103° (ESE) 20:05:54 29.354 - 29.394 USB, Beacon 29.352 USB
HO-68 31 Oct 19:53:55 19:59:49 29° 61° (ENE) 20:05:44 435.675 MHz FM
SO-50 31 Oct 20:21:59 20:26:52 88° 239° (WSW) 20:31:46 436.795 FM
KITSAT 1 31 Oct 20:22:52 20:31:00 86° 61° (ENE) 20:39:05 435.175 FM
UKube-1 31 Oct 20:29:28 20:29:54 10° 61° (ENE) 20:30:20 145.840 MHz, 145.915 MHz
Oscar 11 31 Oct 21:01:04 21:04:16 21° 67° (ENE) 21:07:27 145.825 FM, Beacon 2401.500 USB
UOSAT-12 31 Oct 21:04:21 21:08:25 28° 48° (NE) 21:12:25 437.025 FM, 437.400 FM
FUNcube-1 31 Oct 21:19:35 21:22:04 15° 65° (ENE) 21:24:33 145.950 - 145.970 MHz USB
STRAND 1 31 Oct 21:21:34 21:24:57 18° 297° (WNW) 21:28:19 ?
MaSat-1 31 Oct 21:22:27 21:25:02 17° 107° (ESE) 21:27:30 437.345 MHz
HO-68 31 Oct 21:40:05 21:47:05 56° 258° (WSW) 21:54:09 435.675 MHz FM
RS-15 31 Oct 21:57:42 22:08:43 79° 303° (WNW) 22:19:43 29.354 - 29.394 USB, Beacon 29.352 USB
UKube-1 31 Oct 22:01:04 22:05:25 78° 257° (WSW) 22:09:49 145.840 MHz, 145.915 MHz
ZACube-1 31 Oct 22:10:50 22:15:14 51° 74° (ENE) 22:19:33 437.345 MHz
KITSAT 1 31 Oct 22:20:12 22:25:20 19° 258° (WSW) 22:30:28 435.175 FM
Oscar 11 31 Oct 22:36:18 22:40:13 34° 263° (W) 22:44:09 145.825 FM, Beacon 2401.500 USB
UOSAT-12 31 Oct 22:44:19 22:48:37 36° 245° (WSW) 22:52:50 437.025 FM, 437.400 FM
FUNcube-1 31 Oct 22:53:35 22:58:01 54° 260° (W) 23:02:23 145.950 - 145.970 MHz USB
MaSat-1 31 Oct 22:56:47 23:00:15 31° 299° (WNW) 23:03:25 437.345 MHz
ZACube-1 31 Oct 23:49:25 23:51:52 14° 268° (W) 23:54:19 437.345 MHz
RS-15 01 Nov 00:14:14 00:23:06 27° 330° (NNW) 00:32:05 29.354 - 29.394 USB, Beacon 29.352 USB
Oscar 16 01 Nov 01:23:11 01:26:01 15° 91° (E) 01:28:52 437.025 USB, Beacon 2401.1428
Sapphire 01 Nov 01:34:04 01:38:19 24° 107° (ESE) 01:42:36 437.095 MHz 1200 baud AX-25 AFSK
AO-Echo 01 Nov 01:53:22 01:56:34 16° 91° (E) 01:59:45 ?
PCSat 01 Nov 01:54:44 01:59:45 40° 111° (ESE) 02:04:48 145.825 MHz
Uribyol 2 01 Nov 01:57:42 02:00:00 13° 90° (E) 02:02:17 436.500 FM
ITAMSAT 1 01 Nov 02:05:21 02:08:12 15° 91° (E) 02:11:02 435.822 SSB
JAS-1B 01 Nov 02:07:08 02:14:10 47° 100° (E) 02:22:25 435.800 - 435.900 CW/SSB
Oscar 19 01 Nov 02:13:36 02:18:31 46° 99° (E) 02:23:25 437.125 CW, 437.150 USB
RS-15 01 Nov 02:33:42 02:40:52 19° 7° (N) 02:48:08 29.354 - 29.394 USB, Beacon 29.352 USB
AO-27 01 Nov 02:51:30 02:56:28 42° 99° (E) 03:01:22 436.795 MHz FM
Oscar 16 01 Nov 03:00:43 03:05:47 62° 287° (WNW) 03:10:49 437.025 USB, Beacon 2401.1428
Gurwin Techsat 1B 01 Nov 03:10:37 03:15:26 34° 97° (E) 03:20:14 435.225 FM
Sapphire 01 Nov 03:16:15 03:21:26 46° 304° (NW) 03:26:39 437.095 MHz 1200 baud AX-25 AFSK
TMSAT-1 01 Nov 03:16:44 03:21:18 29° 96° (E) 03:25:51 436.925 FM
AO-Echo 01 Nov 03:30:28 03:35:44 62° 287° (WNW) 03:40:54 ?
Uribyol 2 01 Nov 03:34:47 03:39:59 72° 286° (WNW) 03:45:07 436.500 FM
PCSat 01 Nov 03:38:33 03:43:15 30° 309° (NW) 03:47:59 145.825 MHz
ITAMSAT 1 01 Nov 03:42:57 03:48:07 65° 287° (WNW) 03:53:15 435.822 SSB
Oscar 19 01 Nov 03:53:44 03:57:31 21° 295° (WNW) 04:01:19 437.125 CW, 437.150 USB
AO-7 01 Nov 03:54:49 04:00:22 19° 92° (E) 04:05:52 29.400 - 29.500 MHz
JAS-1B 01 Nov 03:58:11 04:04:35 37° 293° (WNW) 04:12:03 435.800 - 435.900 CW/SSB
PANSAT 01 Nov 04:21:59 04:23:33 12° 170° (S) 04:25:08 not established
AO-27 01 Nov 04:31:36 04:35:41 24° 295° (WNW) 04:39:46 436.795 MHz FM
RS-15 01 Nov 04:47:37 04:57:46 38° 40° (NE) 05:08:13 29.354 - 29.394 USB, Beacon 29.352 USB
Gurwin Techsat 1B 01 Nov 04:50:44 04:55:16 29° 293° (WNW) 04:59:48 435.225 FM
Saudisat 1A 01 Nov 04:55:22 04:58:31 20° 111° (ESE) 05:01:40 436.775 MHz
TMSAT-1 01 Nov 04:56:28 05:01:13 34° 292° (WNW) 05:05:56 436.925 FM
OPAL 01 Nov 04:58:56 05:03:50 50° 69° (ENE) 05:08:43 ?
Uosat F 01 Nov 05:22:29 05:27:30 63° 102° (ESE) 05:32:28 435.120 FM
JAS-2 01 Nov 05:33:13 05:40:07 33° 93° (E) 05:46:44 435.800 - 435.900 CW/SSB, 435.910 FM
AO-7 01 Nov 05:45:38 05:54:01 85° 289° (WNW) 06:02:22 29.400 - 29.500 MHz
PANSAT 01 Nov 06:00:50 06:02:59 15° 183° (S) 06:05:08 not established
Hamsat 01 Nov 06:04:10 06:07:35 23° 95° (E) 06:11:00 145.90 MHz
Saudisat 1A 01 Nov 06:33:36 06:37:46 42° 308° (NW) 06:41:58 436.775 MHz
OPAL 01 Nov 06:39:24 06:42:57 19° 265° (W) 06:46:29 ?
STRAND 1 01 Nov 06:56:20 07:01:27 77° 74° (ENE) 07:06:37 ?
RS-15 01 Nov 06:59:53 07:11:01 72° 244° (WSW) 07:22:39 29.354 - 29.394 USB, Beacon 29.352 USB
Uosat F 01 Nov 07:02:45 07:05:44 16° 298° (WNW) 07:08:44 435.120 FM
MaSat-1 01 Nov 07:06:48 07:08:26 16° 56° (ENE) 07:10:00 437.345 MHz
JAS-2 01 Nov 07:17:43 07:25:19 54° 291° (WNW) 07:32:39 435.800 - 435.900 CW/SSB, 435.910 FM
Hamsat 01 Nov 07:39:53 07:43:29 28° 290° (WNW) 07:47:05 145.90 MHz
AO-7 01 Nov 07:40:09 07:45:37 20° 309° (NW) 07:51:07 29.400 - 29.500 MHz
SO-67 01 Nov 07:54:14 07:57:37 53° 100° (E) 08:00:59 435.3500 MHz FM
STRAND 1 01 Nov 08:39:20 08:41:11 12° 270° (W) 08:43:02 ?
MaSat-1 01 Nov 08:43:08 08:43:32 10° 255° (WSW) 08:43:56 437.345 MHz
KITSAT 1 01 Nov 09:02:00 09:03:54 11° 98° (E) 09:05:47 435.175 FM
JAS-2 01 Nov 09:06:34 09:08:35 11° 310° (NW) 09:10:36 435.800 - 435.900 CW/SSB, 435.910 FM
HO-68 01 Nov 09:08:52 09:15:01 30° 96° (E) 09:21:07 435.675 MHz FM
RS-15 01 Nov 09:16:00 09:21:22 15° 263° (W) 09:26:51 29.354 - 29.394 USB, Beacon 29.352 USB
ISS 01 Nov 09:23:28 09:26:20 28° 134° (SE) 09:29:14 145.800 FM
UKube-1 01 Nov 09:50:51 09:53:54 18° 94° (E) 09:56:56 145.840 MHz, 145.915 MHz
Sapphire 01 Nov 10:22:08 10:26:07 20° 46° (NE) 10:30:05 437.095 MHz 1200 baud AX-25 AFSK
Oscar 11 01 Nov 10:24:07 10:28:14 43° 99° (E) 10:32:20 145.825 FM, Beacon 2401.500 USB
SO-50 01 Nov 10:36:37 10:40:39 34° 114° (ESE) 10:44:48 436.795 FM
PCSat 01 Nov 10:43:14 10:48:00 30° 51° (NE) 10:52:44 145.825 MHz
FUNcube-1 01 Nov 10:43:43 10:47:20 28° 96° (E) 10:50:55 145.950 - 145.970 MHz USB
KITSAT 1 01 Nov 10:49:48 10:57:46 68° 115° (ESE) 11:05:47 435.175 FM
HO-68 01 Nov 10:56:02 11:02:56 52° 293° (WNW) 11:09:49 435.675 MHz FM
ISS 01 Nov 10:59:54 11:02:58 34° 331° (NNW) 11:06:02 145.800 FM
UKube-1 01 Nov 11:26:10 11:30:12 38° 289° (WNW) 11:34:13 145.840 MHz, 145.915 MHz
ZACube-1 01 Nov 11:36:59 11:41:09 66° 285° (WNW) 11:45:15 437.345 MHz
Oscar 11 01 Nov 12:01:19 12:04:03 17° 294° (WNW) 12:06:47 145.825 FM, Beacon 2401.500 USB
Sapphire 01 Nov 12:04:38 12:10:02 67° 245° (WSW) 12:15:23 437.095 MHz 1200 baud AX-25 AFSK
SO-50 01 Nov 12:17:20 12:21:14 28° 312° (NW) 12:25:14 436.795 FM
FUNcube-1 01 Nov 12:20:19 12:23:34 22° 292° (WNW) 12:26:47 145.950 - 145.970 MHz USB
PCSat 01 Nov 12:26:28 12:31:29 39° 249° (WSW) 12:36:28 145.825 MHz
ISS 01 Nov 12:38:52 12:40:26 13° 350° (N) 12:42:00 145.800 FM
Oscar 16 01 Nov 12:39:17 12:43:08 22° 65° (ENE) 12:47:00 437.025 USB, Beacon 2401.1428
KITSAT 1 01 Nov 12:46:48 12:53:46 31° 316° (NW) 13:00:47 435.175 FM
UOSAT-12 01 Nov 12:54:05 12:58:42 79° 120° (ESE) 13:03:26 437.025 FM, 437.400 FM
JAS-1B 01 Nov 12:54:25 12:59:16 29° 65° (ENE) 13:04:09 435.800 - 435.900 CW/SSB
AO-Echo 01 Nov 13:05:40 13:09:13 20° 63° (ENE) 13:12:50 ?
Uribyol 2 01 Nov 13:14:23 13:18:08 20° 64° (ENE) 13:21:53 436.500 FM
Saudisat 1A 01 Nov 13:22:06 13:24:58 17° 43° (NE) 13:27:50 436.775 MHz
ITAMSAT 1 01 Nov 13:22:22 13:26:20 23° 64° (ENE) 13:30:20 435.822 SSB
Oscar 19 01 Nov 13:29:45 13:34:49 63° 73° (ENE) 13:39:53 437.125 CW, 437.150 USB
AO-27 01 Nov 14:08:53 14:14:01 61° 73° (ENE) 14:19:11 436.795 MHz FM
ISS 01 Nov 14:16:35 14:18:15 13° 11° (N) 14:19:56 145.800 FM
Oscar 16 01 Nov 14:17:15 14:22:10 45° 261° (W) 14:27:06 437.025 USB, Beacon 2401.1428
Gurwin Techsat 1B 01 Nov 14:30:58 14:36:05 51° 71° (ENE) 14:41:13 435.225 FM
UOSAT-12 01 Nov 14:36:33 14:39:26 16° 319° (NW) 14:42:21 437.025 FM, 437.400 FM
TMSAT-1 01 Nov 14:36:44 14:41:41 42° 70° (ENE) 14:46:41 436.925 FM
AO-Echo 01 Nov 14:42:42 14:47:32 51° 261° (W) 14:52:34 ?
JAS-1B 01 Nov 14:44:45 14:49:54 34° 263° (W) 14:55:03 435.800 - 435.900 CW/SSB
KITSAT 1 01 Nov 14:50:23 14:52:22 11° 344° (NNW) 14:54:20 435.175 FM
Uribyol 2 01 Nov 14:52:08 14:57:12 51° 260° (W) 15:02:18 436.500 FM
AO-7 01 Nov 14:53:13 14:59:50 28° 56° (NE) 15:06:27 29.400 - 29.500 MHz
ITAMSAT 1 01 Nov 15:00:32 15:05:30 45° 261° (W) 15:10:32 435.822 SSB
Saudisat 1A 01 Nov 15:00:34 15:04:58 65° 241° (WSW) 15:09:19 436.775 MHz
Oscar 19 01 Nov 15:11:45 15:14:34 15° 269° (W) 15:17:23 437.125 CW, 437.150 USB
JAS-2 01 Nov 15:48:00 15:50:47 13° 52° (NE) 15:53:41 435.800 - 435.900 CW/SSB, 435.910 FM
AO-27 01 Nov 15:50:50 15:53:55 16° 269° (W) 15:57:01 436.795 MHz FM
ISS 01 Nov 15:52:32 15:55:41 37° 30° (NNE) 15:58:49 145.800 FM
Gurwin Techsat 1B 01 Nov 16:12:34 16:16:19 19° 267° (W) 16:20:05 435.225 FM
TMSAT-1 01 Nov 16:17:36 16:21:45 23° 266° (W) 16:25:56 436.925 FM
Uosat F 01 Nov 16:34:59 16:40:00 81° 75° (ENE) 16:45:04 435.120 FM
AO-7 01 Nov 16:43:43 16:51:56 69° 255° (WSW) 17:00:14 29.400 - 29.500 MHz
KITSAT 1 01 Nov 16:50:26 16:52:29 11° 16° (NNE) 16:54:33 435.175 FM
Hamsat 01 Nov 16:57:45 17:00:21 16° 66° (ENE) 17:02:56 145.90 MHz
OPAL 01 Nov 17:11:32 17:13:36 12° 93° (E) 17:15:39 ?
JAS-2 01 Nov 17:28:03 17:34:19 70° 72° (ENE) 17:41:27 435.800 - 435.900 CW/SSB, 435.910 FM
ISS 01 Nov 17:29:28 17:32:15 25° 227° (SW) 17:35:01 145.800 FM
Uosat F 01 Nov 18:18:15 18:19:22 11° 271° (W) 18:20:29 435.120 FM
SO-67 01 Nov 18:27:05 18:29:17 16° 69° (ENE) 18:31:29 435.3500 MHz FM
Hamsat 01 Nov 18:32:00 18:35:57 41° 262° (W) 18:39:55 145.90 MHz
AO-7 01 Nov 18:43:59 18:46:06 11° 273° (W) 18:48:13 29.400 - 29.500 MHz
KITSAT 1 01 Nov 18:44:01 18:51:03 32° 44° (NE) 18:58:03 435.175 FM
OPAL 01 Nov 18:48:01 18:52:57 70° 288° (WNW) 18:57:52 ?
STRAND 1 01 Nov 19:08:11 19:12:32 27° 95° (E) 19:16:51 ?
SO-50 01 Nov 19:08:27 19:12:44 30° 49° (NE) 19:17:01 436.795 FM
